Tracking 29892 objects as of 21-Nov-2024
HD Live streaming from Space Station
objects crossing your sky now

TACSAT-6

Track TACSAT-6 now!
10-day predictions
TACSAT-6 is classified as:


NORAD ID: 39473
Int'l Code: 2013-072M
Perigee: 422.9 km
Apogee: 661.1 km
Inclination: 120.5 °
Period: 95.3 minutes
Semi major axis: 6912 km
RCS: Unknown
Launch date: December 6, 2013
Source: United States (US)
Launch site: AIR FORCE WESTERN TEST RANGE (AFWTR)

TACSAT-6 is a military satellite that will test advanced nanosatellite communications technologies.
Your satellite tracking list
Your tracking list is empty




NASA's NSSDC Master Catalog

Two Line Element Set (TLE):
1 39473U 13072M   24325.13406747  .00043734  00000-0  18482-2 0  9993
2 39473 120.4825  31.0760 0172238 135.6882 225.8116 15.10443461 31371
Source of the keplerian elements: AFSPC